| time (UTC) | temp F | wind direction | speed knots | gust knots | rain 1hr in | rain 24hr in | rain mn in | humidity % | barometer mb |
| 20260906153050 | 72 | 334 | 0.0 | 0.0 | 0.00 | 0.00 | 0.00 | 43 | 1026.0 |
| 20260906151553 | 73 | 42 | 0.0 | 0.0 | 0.00 | 0.00 | 0.00 | 40 | 1026.1 |
| 20260906150049 | 74 | 274 | 0.0 | 0.0 | 0.00 | 0.00 | 0.00 | 40 | 1026.2 |
| 20260906144549 | 75 | 267 | 0.0 | 0.0 | 0.00 | 0.00 | 0.00 | 46 | 1026.4 |
| 20260906144301 | 75 | 0.0 | 0.0 | 0.00 | 0.00 | 0.00 | 43 | 1027.2 | |
| 20260906143046 | 74 | 269 | 0.0 | 0.0 | 0.00 | 0.00 | 0.00 | 43 | 1026.4 |
| 20260906141545 | 74 | 273 | 0.0 | 0.0 | 0.00 | 0.00 | 0.00 | 43 | 1026.4 |
| 20260906140049 | 74 | 275 | 0.0 | 0.0 | 0.00 | 0.00 | 0.00 | 42 | 1026.6 |
| 20260906134541 | 73 | 333 | 0.0 | 0.0 | 0.00 | 0.00 | 0.00 | 47 | 1026.7 |
| 20260906134209 | 73 | 0.0 | 0.0 | 0.00 | 0.00 | 0.00 | 47 | 1027.5 | |
| 20260906133046 | 73 | 118 | 0.0 | 0.0 | 0.00 | 0.00 | 0.00 | 50 | 1026.6 |
| 20260906131538 | 72 | 249 | 0.0 | 0.0 | 0.00 | 0.00 | 0.00 | 47 | 1026.7 |
| 20260906130038 | 72 | 239 | 0.0 | 0.0 | 0.00 | 0.00 | 0.00 | 48 | 1026.9 |
| 20260906124539 | 72 | 69 | 0.0 | 0.0 | 0.00 | 0.00 | 0.00 | 45 | 1026.9 |
| 20260906124232 | 72 | 0.0 | 0.0 | 0.00 | 0.00 | 0.00 | 49 | 1027.9 | |
| 20260906123037 | 72 | 227 | 0.0 | 0.0 | 0.00 | 0.00 | 0.00 | 51 | 1027.1 |
| 20260906121533 | 71 | 276 | 0.0 | 0.0 | 0.00 | 0.00 | 0.00 | 53 | 1027.2 |
| 20260906120029 | 71 | 255 | 0.0 | 0.0 | 0.00 | 0.00 | 0.00 | 53 | 1027.2 |
| 20260906114527 | 70 | 123 | 0.0 | 0.0 | 0.00 | 0.00 | 0.00 | 54 | 1027.5 |
| 20260906114202 | 70 | 0.0 | 0.0 | 0.00 | 0.00 | 0.00 | 59 | 1028.4 | |
| 20260906113024 | 69 | 119 | 0.0 | 0.0 | 0.00 | 0.00 | 0.00 | 57 | 1027.5 |
| 20260906111522 | 68 | 84 | 0.0 | 0.0 | 0.00 | 0.00 | 0.00 | 59 | 1027.6 |
| 20260906110022 | 68 | 80 | 0.0 | 0.0 | 0.00 | 0.00 | 0.00 | 54 | 1027.6 |
| 20260906104517 | 67 | 236 | 0.0 | 0.0 | 0.00 | 0.00 | 0.00 | 62 | 1027.9 |
| 20260906104232 | 67 | 0.0 | 0.0 | 0.00 | 0.00 | 0.00 | 64 | 1028.8 | |
| 20260906103035 | 66 | 323 | 0.0 | 0.0 | 0.00 | 0.00 | 0.00 | 63 | 1028.0 |
| 20260906101513 | 66 | 270 | 0.0 | 0.0 | 0.00 | 0.00 | 0.00 | 63 | 1028.3 |
| 20260906100021 | 65 | 182 | 0.0 | 0.0 | 0.00 | 0.00 | 0.00 | 64 | 1028.2 |
| 20260906094508 | 64 | 86 | 0.0 | 0.0 | 0.00 | 0.00 | 0.00 | 66 | 1028.4 |
| 20260906094222 | 65 | 0.0 | 0.0 | 0.00 | 0.00 | 0.00 | 64 | 1029.1 | |
| 20260906093007 | 65 | 74 | 0.0 | 0.0 | 0.00 | 0.00 | 0.00 | 64 | 1028.5 |
| 20260906091504 | 64 | 70 | 0.0 | 0.0 | 0.00 | 0.00 | 0.00 | 65 | 1028.5 |
| 20260906090002 | 63 | 240 | 0.0 | 0.0 | 0.00 | 0.00 | 0.00 | 68 | 1028.5 |
| 20260906084659 | 63 | 76 | 0.0 | 0.0 | 0.00 | 0.00 | 0.00 | 71 | 1028.5 |
| 20260906084204 | 62 | 0.0 | 0.0 | 0.00 | 0.00 | 0.00 | 68 | 1029.1 | |
| 20260906083059 | 62 | 27 | 0.0 | 0.0 | 0.00 | 0.00 | 0.00 | 69 | 1028.3 |
| 20260906081552 | 60 | 232 | 0.0 | 0.0 | 0.00 | 0.00 | 0.00 | 72 | 1028.4 |
| 20260906080051 | 59 | 225 | 0.0 | 0.0 | 0.00 | 0.00 | 0.00 | 78 | 1028.4 |
| 20260906074545 | 57 | 225 | 0.0 | 0.0 | 0.00 | 0.00 | 0.00 | 85 | 1028.3 |
| 20260906074132 | 56 | 0.0 | 0.0 | 0.00 | 0.00 | 0.00 | 88 | 1028.9 | |
| 20260906073041 | 56 | 225 | 0.0 | 0.0 | 0.00 | 0.00 | 0.00 | 88 | 1028.2 |
| 20260906071538 | 54 | 225 | 0.0 | 0.0 | 0.00 | 0.00 | 0.00 | 91 | 1028.2 |
| 20260906070037 | 51 | 225 | 0.0 | 0.0 | 0.00 | 0.00 | 0.00 | 91 | 1028.1 |
| 20260906064538 | 49 | 225 | 0.0 | 0.0 | 0.00 | 0.00 | 0.00 | 91 | 1028.0 |
| 20260906064103 | 47 | 0.0 | 0.0 | 0.00 | 0.00 | 0.00 | 90 | 1028.1 | |
| 20260906063034 | 47 | 226 | 0.0 | 0.0 | 0.00 | 0.00 | 0.00 | 90 | 1027.8 |
| 20260906061533 | 45 | 226 | 0.0 | 0.0 | 0.00 | 0.00 | 0.00 | 89 | 1027.8 |
| 20260906060032 | 45 | 226 | 0.0 | 0.0 | 0.00 | 0.00 | 0.00 | 89 | 1027.8 |
| 20260906054537 | 44 | 226 | 0.0 | 0.0 | 0.00 | 0.00 | 0.00 | 88 | 1027.7 |
| 20260906054129 | 45 | 0.0 | 0.0 | 0.00 | 0.00 | 0.00 | 88 | 1027.8 | |
| 20260906053029 | 44 | 226 | 0.0 | 0.0 | 0.00 | 0.00 | 0.00 | 88 | 1027.6 |
| 20260906051527 | 45 | 226 | 0.0 | 0.0 | 0.00 | 0.00 | 0.00 | 88 | 1027.4 |
| 20260906050027 | 45 | 226 | 0.0 | 0.0 | 0.00 | 0.00 | 0.00 | 88 | 1027.3 |
| 20260906044527 | 45 | 226 | 0.0 | 0.0 | 0.00 | 0.00 | 0.00 | 88 | 1027.2 |
| 20260906044059 | 45 | 0.0 | 0.0 | 0.00 | 0.00 | 0.00 | 88 | 1027.7 | |
| 20260906043025 | 45 | 226 | 0.0 | 0.0 | 0.00 | 0.00 | 0.00 | 88 | 1027.3 |
| 20260906041522 | 45 | 226 | 0.0 | 0.0 | 0.00 | 0.00 | 0.00 | 87 | 1027.1 |
| 20260906040022 | 45 | 226 | 0.0 | 0.0 | 0.00 | 0.00 | 0.00 | 87 | 1027.0 |
| 20260906034520 | 46 | 226 | 0.0 | 0.0 | 0.00 | 0.05 | 0.00 | 87 | 1027.0 |
| 20260906034127 | 46 | 0.0 | 0.0 | 0.00 | 0.00 | 0.00 | 87 | 1027.5 | |
| 20260906033019 | 46 | 226 | 0.0 | 0.0 | 0.00 | 0.05 | 0.00 | 87 | 1027.1 |
| 20260906031518 | 46 | 226 | 0.0 | 0.0 | 0.00 | 0.05 | 0.00 | 87 | 1026.9 |
| 20260906030017 | 46 | 226 | 0.0 | 0.0 | 0.00 | 0.05 | 0.00 | 86 | 1026.9 |
| 20260906024514 | 46 | 226 | 0.0 | 0.0 | 0.00 | 0.10 | 0.00 | 87 | 1026.8 |
| 20260906024204 | 47 | 0.0 | 0.0 | 0.00 | 0.09 | 0.00 | 86 | 1027.3 | |
| 20260906023012 | 47 | 225 | 0.0 | 0.0 | 0.00 | 0.10 | 0.00 | 86 | 1026.7 |
| 20260906021520 | 47 | 225 | 0.0 | 0.0 | 0.00 | 0.10 | 0.00 | 86 | 1026.4 |
| 20260906020011 | 47 | 225 | 0.0 | 0.0 | 0.00 | 0.10 | 0.00 | 86 | 1026.2 |
| 20260906014514 | 47 | 225 | 0.0 | 0.0 | 0.00 | 0.13 | 0.00 | 85 | 1026.1 |
| 20260906014153 | 48 | 0.0 | 0.0 | 0.00 | 0.13 | 0.00 | 84 | 1026.8 | |
| 20260906013008 | 48 | 225 | 0.0 | 0.0 | 0.00 | 0.13 | 0.00 | 84 | 1026.1 |
| 20260906011502 | 48 | 225 | 0.0 | 0.0 | 0.00 | 0.13 | 0.00 | 84 | 1026.0 |
| 20260906010003 | 48 | 225 | 0.0 | 0.0 | 0.00 | 0.13 | 0.00 | 84 | 1026.0 |
| 20260906004559 | 49 | 225 | 0.0 | 0.0 | 0.00 | 0.14 | 0.00 | 83 | 1026.0 |
| 20260906004033 | 50 | 0.0 | 0.0 | 0.00 | 0.14 | 0.00 | 83 | 1026.4 | |
| 20260906003057 | 49 | 225 | 0.0 | 0.0 | 0.00 | 0.14 | 0.00 | 83 | 1025.9 |
| 20260906001555 | 49 | 226 | 0.0 | 0.0 | 0.00 | 0.14 | 0.00 | 83 | 1025.8 |
| 20260906000054 | 50 | 226 | 0.0 | 0.0 | 0.00 | 0.14 | 0.00 | 82 | 1025.8 |
| 20260905234551 | 50 | 225 | 0.0 | 0.0 | 0.00 | 0.14 | 0.00 | 81 | 1025.7 |
| 20260905234124 | 51 | 0.0 | 0.0 | 0.00 | 0.14 | 0.00 | 81 | 1026.1 | |
| 20260905233049 | 51 | 226 | 0.0 | 0.0 | 0.00 | 0.14 | 0.00 | 81 | 1025.5 |
| 20260905231548 | 51 | 226 | 0.0 | 0.0 | 0.00 | 0.14 | 0.00 | 81 | 1025.4 |
| 20260905230044 | 52 | 226 | 0.0 | 0.0 | 0.00 | 0.14 | 0.00 | 79 | 1025.2 |
| 20260905224542 | 52 | 226 | 0.0 | 0.0 | 0.00 | 0.14 | 0.00 | 79 | 1025.1 |
| 20260905224030 | 53 | 0.0 | 0.0 | 0.00 | 0.14 | 0.00 | 78 | 1025.6 | |
| 20260905223038 | 53 | 226 | 0.0 | 0.0 | 0.00 | 0.14 | 0.00 | 78 | 1025.0 |
| 20260905221535 | 54 | 226 | 0.0 | 0.0 | 0.00 | 0.14 | 0.00 | 77 | 1024.8 |
| 20260905220032 | 54 | 226 | 0.0 | 0.0 | 0.00 | 0.14 | 0.00 | 75 | 1024.8 |
| 20260905214530 | 55 | 226 | 0.0 | 0.0 | 0.00 | 0.14 | 0.14 | 75 | 1024.9 |
| 20260905213959 | 56 | 0.0 | 0.0 | 0.00 | 0.14 | 0.14 | 74 | 1025.3 | |
| 20260905213029 | 55 | 226 | 0.0 | 0.0 | 0.00 | 0.14 | 0.14 | 74 | 1024.8 |
| 20260905211528 | 56 | 226 | 0.0 | 0.0 | 0.00 | 0.14 | 0.14 | 74 | 1024.5 |
| 20260905210028 | 56 | 226 | 0.0 | 0.0 | 0.00 | 0.14 | 0.14 | 72 | 1024.5 |
| 20260905204527 | 57 | 226 | 0.0 | 0.0 | 0.00 | 0.14 | 0.14 | 72 | 1024.4 |
| 20260905204030 | 57 | 0.0 | 0.0 | 0.00 | 0.14 | 0.14 | 71 | 1024.8 | |
| 20260905203025 | 57 | 226 | 0.0 | 0.0 | 0.00 | 0.14 | 0.14 | 71 | 1024.2 |
| 20260905201524 | 57 | 226 | 0.0 | 0.0 | 0.00 | 0.14 | 0.14 | 71 | 1024.0 |
| 20260905200031 | 58 | 226 | 0.0 | 0.0 | 0.00 | 0.14 | 0.14 | 70 | 1023.8 |
| 20260905194521 | 60 | 226 | 0.0 | 0.0 | 0.00 | 0.14 | 0.14 | 68 | 1023.7 |
| 20260905193957 | 62 | 0.0 | 0.0 | 0.00 | 0.14 | 0.14 | 65 | 1024.3 | |
| 20260905193020 | 61 | 225 | 0.0 | 0.0 | 0.00 | 0.14 | 0.14 | 65 | 1023.6 |
| 20260905191526 | 62 | 225 | 0.0 | 0.0 | 0.00 | 0.14 | 0.14 | 62 | 1023.5 |
| 20260905190029 | 63 | 225 | 0.0 | 0.9 | 0.00 | 0.14 | 0.14 | 61 | 1023.3 |
| 20260905184522 | 63 | 225 | 0.0 | 1.7 | 0.00 | 0.14 | 0.14 | 61 | 1023.1 |
| 20260905184230 | 64 | 0.0 | 0.9 | 0.00 | 0.14 | 0.14 | 61 | 1023.7 | |
| 20260905183014 | 64 | 225 | 0.0 | 2.6 | 0.00 | 0.14 | 0.14 | 60 | 1023.0 |
| 20260905181512 | 64 | 284 | 0.0 | 2.6 | 0.00 | 0.14 | 0.14 | 59 | 1022.7 |
| 20260905180012 | 65 | 324 | 0.9 | 2.6 | 0.00 | 0.14 | 0.14 | 58 | 1022.3 |
| 20260905174509 | 66 | 252 | 0.0 | 3.5 | 0.00 | 0.14 | 0.14 | 58 | 1022.1 |
| 20260905174119 | 67 | 270 | 1.7 | 1.7 | 0.00 | 0.14 | 0.14 | 56 | 1022.8 |
| 20260905173005 | 66 | 274 | 0.9 | 3.5 | 0.00 | 0.14 | 0.14 | 57 | 1021.9 |
| 20260905171504 | 67 | 266 | 0.9 | 4.3 | 0.00 | 0.14 | 0.14 | 57 | 1021.7 |
| 20260905170002 | 68 | 295 | 0.9 | 6.1 | 0.00 | 0.14 | 0.14 | 57 | 1021.5 |
| 20260905164501 | 68 | 178 | 0.9 | 5.2 | 0.00 | 0.14 | 0.14 | 57 | 1021.2 |
| 20260905164024 | 70 | 270 | 1.7 | 3.5 | 0.00 | 0.14 | 0.14 | 55 | 1022.0 |
| 20260905163058 | 69 | 208 | 1.7 | 5.2 | 0.00 | 0.14 | 0.14 | 55 | 1021.0 |
| 20260905161557 | 70 | 268 | 1.7 | 8.7 | 0.00 | 0.14 | 0.14 | 54 | 1020.7 |
| 20260905160059 | 70 | 198 | 1.7 | 7.8 | 0.00 | 0.14 | 0.14 | 54 | 1020.5 |
| 20260905154556 | 70 | 296 | 1.7 | 7.8 | 0.00 | 0.14 | 0.14 | 52 | 1020.4 |
| 20260905153954 | 71 | 270 | 1.7 | 2.6 | 0.00 | 0.14 | 0.14 | 53 | 1021.6 |